Regional Weather Roundup
Issued by NWS

Home | Current Version | Previous Version | Graphics & Text | Print | Product List | Glossary On
Versions: 1 2 3 4 5 6 7 8 9 10 11 12 13 14 15 16 17 18 19 20 21 22 23 24 25 26 27 28 29 30 31 32 33 34 35 36 37 38 39 40 41 42 43 44 45 46 47 48 49 50
000
ASUS45 KBOI 280510
RWRID
WEATHER ROUNDUP FOR IDAHO
NATIONAL WEATHER SERVICE BOISE ID
1100 PM MDT WED AUG 27 2014

NOTE: "FAIR" INDICATES FEW OR NO CLOUDS BELOW 12000 FEET
WITH NO SIGNIFICANT WEATHER AND/OR OBSTRUCTIONS TO VISIBILITY

IDZ012-014-280600-
SOUTHWEST IDAHO


CITY           SKY/WX    TMP DP  RH WIND       PRES   REMARKS
BOISE          CLEAR     74  38  27 SE10      30.05S
CALDWELL       CLEAR     70  45  40 E3        30.03F
MOUNTAIN HOME  CLEAR     73  37  26 CALM      30.06F
$$

IDZ016-017-280600-
SOUTHCENTRAL IDAHO


CITY           SKY/WX    TMP DP  RH WIND       PRES   REMARKS
BURLEY         CLEAR     60  52  74 S8        30.15S
JEROME         CLEAR     62  51  67 E8        30.14F
TWIN FALLS     CLEAR     64  48  56 S9        30.15S
$$

IDZ019>023-280600-
SOUTHEAST IDAHO


CITY           SKY/WX    TMP DP  RH WIND       PRES   REMARKS
IDAHO FALLS    CLEAR     64  50  60 S9        30.18S
POCATELLO      CLEAR     60  48  64 S8        30.18S
REXBURG        CLEAR     63  47  55 S8        30.18S
$$

IDZ006-010-011-018-031-032-280600-
CENTRAL IDAHO MOUNTAINS


CITY           SKY/WX    TMP DP  RH WIND       PRES   REMARKS
MCCALL         CLEAR     59  42  53 NW3       30.18S
HAILEY         PTCLDY    61  45  55 CALM      30.23R
STANLEY          N/A     50  39  66 S3        30.30S
SALMON         CLEAR     59  48  67 CALM      30.11R
CHALLIS        PTCLDY    61  43  51 CALM      30.18R
$$

IDZ002-004-006-007-026-280600-
NORTHERN IDAHO


CITY           SKY/WX    TMP DP  RH WIND       PRES   REMARKS
LEWISTON       CLEAR     78  47  33 SW5       29.92S
LOWELL           N/A     64  55  72 CALM      30.01R
COEUR D`ALENE  CLEAR     72  48  43 S3        29.95S
MULLAN PASS    CLEAR     63  38  39 W7        30.20F
$$



USA.gov is the U.S. government's official web portal to all federal, state and local government web resources and services.